Theta_e
319 319 319 318 318 319 319 319 319 319 319 319 319 320 320 321 321 320 319 319 319 319 320 320 320 319 317 316 315 314 313 312 312 311 309 308 307 307 306 306 306 306
317 317 317 318 318 318 318 319 319 318 318 318 319 319 320 320 321 321 320 320 319 317 317 317 318 318 318 317 316 315 314 313 312 312 310 308 307 307 307 307 307 306
317 317 316 316 316 317 318 318 318 317 317 317 318 318 318 318 318 319 318 318 318 318 317 316 315 316 316 316 317 315 314 313 312 312 311 310 309 307 307 307 306 306
316 316 316 316 316 316 317 316 316 316 315 315 315 316 316 316 316 315 316 314 315 315 316 316 316 315 315 315 314 314 314 313 313 313 311 310 310 309 308 307 306 306
314 314 314 313 314 314 314 313 313 313 313 314 314 314 313 313 313 313 313 313 313 313 313 313 314 314 314 314 313 312 312 312 312 312 310 309 309 308 308 307 306 305
311 311 311 311 311 311 311 311 311 311 312 312 312 312 312 312 311 311 311 311 311 311 311 311 311 312 312 311 311 311 310 310 310 310 309 308 308 308 307 307 306 305
309 310 309 309 309 309 309 309 310 310 310 310 310 309 310 309 309 309 309 309 309 309 309 310 310 310 310 310 309 309 309 309 309 309 308 307 307 307 307 306 304 304
307 307 307 307 307 307 307 308 307 308 308 307 307 307 307 307 307 308 308 308 308 308 308 308 308 309 309 309 308 308 307 308 308 307 307 307 307 306 306 306 305 303
305 305 305 305 305 305 305 305 305 305 305 305 305 305 305 305 305 305 305 306 306 306 306 306 307 307 307 307 307 307 306 306 307 306 305 305 305 305 305 305 302 301
304 303 303 303 303 304 302 303 302 302 302 302 302 303 303 303 304 304 303 303 303 303 303 303 303 303 304 305 305 305 305 305 305 304 304 303 303 303 302 301 300 299
302 302 301 301 301 301 301 301 301 301 301 301 301 301 302 302 302 302 301 300 300 300 300 301 301 302 302 302 302 303 303 303 302 302 302 302 301 300 297 298 298 298
300 300 299 299 299 299 299 299 300 300 300 300 300 300 300 300 300 300 300 299 299 299 299 299 299 299 300 300 300 301 301 301 301 301 300 300 299 298 298 298 298 297
298 298 298 298 298 298 298 298 298 298 298 298 298 298 298 298 299 298 299 299 299 299 298 298 299 299 299 299 300 300 300 299 299 299 298 298 298 298 298 298 298 297
297 297 296 296 297 297 297 297 297 297 297 297 297 297 297 297 297 297 298 298 298 298 298 299 298 298 298 298 299 299 298 298 298 297 297 297 297 297 297 297 297 297
296 296 296 296 295 295 295 295 295 295 295 295 296 296 297 297 297 296 296 296 297 297 297 298 298 297 298 297 297 297 298 297 297 297 297 296 296 296 296 296 296 297
295 295 294 294 294 294 293 293 294 294 294 294 294 294 295 295 295 295 295 295 295 296 296 297 297 298 294 292 293 295 295 295 295 295 295 296 295 295 295 296 296 297
294 294 294 293 293 292 292 292 292 292 292 292 292 293 293 294 294 294 294 295 295 295 295 296 297 297 293 294 294 294 293 294 293 294 294 294 294 294 294 294 295 295
293 293 293 292 291 291 291 290 291 289 289 290 290 291 291 293 292 293 293 294 294 294 294 295 295 293 294 294 294 294 292 292 293 293 293 293 294 294 294 294 294 294
292 292 292 291 290 290 289 289 289 289 289 289 289 289 290 291 290 292 293 293 293 293 293 293 293 293 293 293 293 293 293 292 292 292 292 292 293 293 293 293 293 293
291 289 290 290 289 289 289 288 288 288 288 288 289 289 288 290 289 290 289 291 291 291 291 291 291 291 292 292 292 292 292 292 291 291 291 291 292 292 292 292 293 292
289 289 288 288 289 288 287 287 288 287 287 288 288 289 288 288 289 288 288 288 289 289 290 290 290 291 291 291 292 292 292 292 291 291 291 291 292 292 292 292 293 293
288 288 288 288 287 287 287 287 287 286 286 287 288 288 288 288 288 288 287 287 288 288 288 287 289 290 291 291 291 291 292 289 290 290 290 290 290 291 291 292 292 292
287 287 286 286 286 286 285 286 286 286 286 287 286 287 287 287 287 287 287 287 287 287 287 287 288 289 290 290 290 291 290 288 288 288 288 288 289 290 290 291 291 291
286 286 285 285 285 284 285 285 285 286 286 287 286 286 286 286 287 287 287 287 287 286 286 286 286 287 288 289 289 290 289 287 287 287 287 287 288 289 289 290 290 288
285 284 284 283 283 284 284 284 284 285 286 286 286 286 286 287 287 287 286 286 286 286 286 286 286 286 288 288 289 289 288 287 287 287 286 287 287 288 288 289 290 289
284 283 282 282 282 282 283 284 284 285 284 284 284 285 286 286 286 285 284 285 286 286 286 286 286 286 287 288 289 289 290 287 287 286 285 286 286 287 287 287 288 288
Wind_Speed
6 6 6 5 5 5 6 6 6 6 7 6 6 7 7 6 5 6 6 6 7 7 7 7 6 5 5 6 6 6 6 7 6 7 8 8 10 11 11 11 11 11
6 6 5 5 5 5 6 6 6 6 6 7 6 7 6 6 5 4 4 5 5 7 7 7 6 5 4 4 5 7 7 7 9 6 8 10 10 10 13 13 12 10
5 6 6 6 5 5 5 5 5 5 5 5 6 6 5 5 6 6 6 7 8 7 7 6 7 7 8 7 6 6 6 7 8 6 8 10 9 10 10 10 10 12
5 5 4 5 5 4 4 4 4 4 4 4 5 4 4 4 6 7 8 7 8 7 7 7 8 8 7 6 6 6 7 7 6 6 8 7 8 8 9 8 9 9
4 3 3 3 2 3 2 3 4 4 4 4 4 4 4 5 5 6 6 6 6 7 6 6 7 7 7 6 6 6 7 7 7 6 6 8 8 7 7 7 8 10
3 2 2 2 2 2 2 3 3 3 4 4 4 3 4 4 4 5 5 5 5 6 6 6 6 6 6 6 7 7 6 6 6 6 6 6 6 6 6 7 8 9
2 3 2 2 2 2 2 2 2 2 2 3 3 3 4 4 5 5 5 5 6 6 6 6 6 6 6 6 6 7 6 6 7 7 8 8 8 8 6 6 7 9
2 2 2 1 1 1 1 1 1 2 2 3 3 3 3 4 5 5 5 5 6 6 6 6 7 7 5 6 7 7 6 5 6 7 8 9 8 8 8 6 6 7
2 1 1 1 1 1 1 1 2 2 2 3 3 3 4 4 4 5 6 6 6 6 6 6 7 6 5 5 7 8 8 7 6 6 7 8 9 9 7 5 6 7
3 2 2 1 2 3 3 2 2 2 2 2 3 3 3 3 4 5 5 5 6 6 6 6 7 7 6 5 7 7 7 8 7 6 7 8 8 8 7 7 8 9
4 3 4 4 4 3 3 3 2 2 2 2 2 2 3 3 3 3 4 4 5 6 6 6 7 7 7 7 7 6 7 7 7 7 7 8 8 8 8 8 9 10
5 4 4 4 3 3 3 3 2 2 2 2 2 2 3 2 3 2 2 4 5 6 6 6 6 5 6 6 7 7 7 7 7 7 7 8 8 8 8 8 9 10
5 5 4 4 3 3 3 3 3 3 3 2 2 2 2 3 2 2 2 2 4 4 5 6 5 5 6 6 7 7 7 6 7 7 7 7 8 9 9 9 9 10
5 4 5 4 3 4 5 5 4 4 4 4 3 3 3 3 3 4 3 3 4 4 4 5 5 5 6 6 6 7 6 6 7 7 8 8 9 9 9 10 11 11
5 5 5 5 5 6 6 6 5 5 4 4 3 3 3 3 3 3 4 4 4 4 4 3 4 4 4 4 5 5 6 7 7 7 8 8 8 9 9 10 10 10
5 5 4 4 5 6 5 5 4 4 4 3 3 3 3 3 3 4 4 4 5 5 4 4 4 4 5 9 8 7 7 7 8 8 8 9 9 10 10 10 10 10
3 3 2 3 4 4 3 4 4 3 3 2 3 3 3 3 2 3 3 3 4 5 5 4 5 5 8 9 10 10 8 8 8 9 8 9 9 10 11 10 10 10
1 2 2 3 3 3 2 2 2 1 1 1 1 2 2 2 3 3 3 4 4 5 5 5 5 7 10 10 10 10 9 8 8 8 8 8 9 10 9 9 10 10
2 3 3 3 3 4 2 2 2 2 2 2 2 2 2 3 2 3 3 4 4 5 6 6 6 7 9 10 10 10 11 9 7 8 9 9 9 10 10 10 9 9
3 3 4 4 4 3 4 3 4 3 4 3 3 3 3 3 3 4 4 4 4 6 7 7 8 8 10 11 12 12 11 10 8 9 9 10 11 10 10 10 10 9
5 5 5 5 5 4 4 4 4 4 4 4 3 3 4 4 4 4 4 4 5 4 6 8 8 12 13 13 13 14 12 10 8 8 9 10 10 10 11 11 10 9
6 6 6 6 6 4 5 5 5 5 5 4 3 3 3 3 4 4 5 6 6 5 6 8 8 12 14 14 14 13 13 8 7 8 9 10 11 11 10 10 9 9
6 6 4 5 4 5 6 5 5 6 4 3 4 4 4 4 5 5 5 5 6 6 6 8 9 9 11 13 13 14 10 7 6 7 8 10 11 11 10 10 10 9
6 6 4 4 4 5 5 4 5 4 3 3 4 5 5 5 5 5 4 4 5 7 6 8 10 10 11 13 13 12 10 8 7 7 9 9 10 11 9 9 11 15
3 3 3 4 4 4 4 5 5 4 4 4 4 5 6 4 4 5 6 6 5 8 10 10 10 11 11 12 13 11 8 6 6 6 9 9 9 10 10 9 10 10
3 3 4 4 4 4 4 4 4 4 4 5 5 4 4 4 5 6 9 9 6 6 7 6 8 9 9 10 11 11 10 6 5 6 9 10 10 10 11 11 10 10
Wind_Direction
209 211 219 225 233 240 244 243 244 247 250 252 251 254 257 257 213 215 236 256 256 255 257 253 243 225 207 211 213 220 223 226 229 217 219 222 229 230 233 230 226 234
201 206 214 223 230 226 232 237 244 249 257 257 261 270 276 279 280 278 259 240 228 249 261 263 262 258 240 221 209 215 221 219 224 210 216 217 226 227 233 234 235 234
192 198 205 216 223 233 238 240 248 256 260 269 277 276 280 289 284 271 262 268 270 252 244 246 257 258 256 253 249 239 233 229 228 213 218 228 227 228 237 234 235 233
200 203 209 213 223 236 241 245 247 249 250 258 263 275 282 281 280 275 273 266 262 265 265 261 257 258 253 243 248 258 257 253 245 232 228 232 229 227 230 226 233 237
186 192 210 222 232 238 249 248 252 257 267 271 277 274 271 272 269 272 274 275 271 268 264 258 260 262 266 260 241 248 258 264 256 235 233 237 234 229 235 225 229 235
159 170 178 197 218 231 238 244 248 252 259 267 270 277 279 281 282 283 283 280 277 275 273 271 269 263 260 263 269 260 258 265 269 261 253 253 248 230 231 224 228 234
135 142 150 175 183 211 254 258 270 283 285 293 317 302 310 301 291 286 286 283 280 277 275 275 272 269 263 261 260 263 264 269 273 269 260 258 259 255 236 227 233 238
109 97 124 111 144 157 242 293 298 310 319 321 311 310 306 305 305 302 300 296 293 294 292 284 276 273 275 271 265 263 258 252 262 266 274 270 261 255 245 237 238 244
97 108 76 121 115 123 78 6 349 335 339 324 318 314 316 311 306 304 305 302 292 291 295 294 291 288 285 276 270 268 265 264 261 258 258 262 265 269 271 263 250 245
101 87 90 65 90 82 63 41 10 352 351 332 319 318 313 310 309 306 307 305 300 294 289 289 290 291 292 293 283 283 284 283 281 271 265 267 270 268 265 265 263 265
77 71 61 54 50 56 56 51 35 17 14 334 332 319 321 321 316 324 311 308 304 298 292 288 285 283 282 280 278 278 280 280 280 280 276 270 265 262 262 260 259 255
60 55 50 49 45 50 52 48 41 30 19 6 5 345 336 323 311 310 301 296 297 294 291 288 288 288 285 284 281 281 277 275 274 269 267 267 267 263 258 253 253 255
49 44 39 38 34 35 42 42 37 29 22 18 7 346 339 334 334 316 304 297 287 288 290 292 289 281 279 276 277 276 274 271 273 271 267 265 262 262 261 258 255 255
40 33 35 28 17 26 35 35 27 25 18 9 5 357 355 348 333 330 319 309 303 295 289 293 296 294 288 283 281 280 281 278 274 269 267 264 263 260 259 258 257 257
28 24 22 19 18 27 27 23 19 16 11 1 4 351 345 338 324 321 311 303 295 290 289 285 282 281 279 276 277 275 278 278 271 264 262 266 266 264 260 257 257 254
27 22 16 19 23 26 22 13 13 10 1 360 353 351 338 335 325 314 305 300 302 301 296 288 276 264 254 251 249 262 278 283 284 280 277 272 270 270 266 261 260 260
23 7 14 30 28 27 17 10 8 358 345 342 342 339 321 317 307 299 299 297 297 297 291 281 270 264 263 259 259 255 259 272 276 277 273 272 269 268 270 271 266 263
19 11 37 39 33 15 9 2 352 334 344 339 330 326 320 309 298 286 288 287 281 283 281 278 276 268 264 269 270 269 262 264 272 273 271 268 269 267 269 271 272 272
12 28 35 31 20 7 2 356 358 347 7 345 339 329 305 308 301 298 291 293 287 288 291 287 284 277 274 275 276 276 276 271 271 270 271 270 268 268 268 269 269 272
17 22 24 19 10 8 4 2 7 9 357 338 333 335 333 322 312 308 301 304 306 302 297 296 291 296 297 294 291 288 283 278 270 271 269 268 267 267 268 270 266 268
18 19 15 8 6 5 2 4 5 355 354 345 343 340 334 331 326 324 316 305 299 291 293 293 291 296 300 299 298 298 293 285 277 275 273 270 268 265 265 266 268 267
15 12 6 3 360 358 360 358 358 349 341 334 331 326 316 305 306 302 303 305 299 299 295 288 286 291 295 298 298 299 300 297 284 280 278 277 274 271 267 269 269 266
12 8 358 355 352 352 351 347 344 337 326 324 315 307 301 297 289 283 278 282 286 282 282 284 285 286 286 287 289 292 296 289 287 281 278 277 276 277 275 272 268 264
6 4 350 346 343 343 332 324 320 302 295 315 304 303 294 290 284 283 277 273 280 284 277 284 287 284 276 279 280 274 274 282 282 281 277 278 281 280 278 273 269 266
353 350 338 334 333 319 318 313 307 304 307 311 305 298 289 287 298 303 302 295 282 279 278 272 277 282 270 264 268 254 259 269 273 279 283 283 288 289 288 282 278 278
340 343 337 331 317 316 312 306 306 312 321 315 305 291 299 315 311 304 301 298 288 279 281 268 277 286 282 266 262 250 237 247 265 277 280 290 292 292 294 294 290 284